Вернуться в каталог

CZ-6A DEB

АктивенSSO
NORAD 56278·DEBRIS·🇨🇳 China

Запущен Nov 11, 2022 с Taiyuan Satellite Launch Center

Loading…

Ближайшие Пролёты (ближайшие 24 часа)

TLE

СвежийSource: Space-Track

Эпоха: Sep 13, 2026, 09:49 UTC

1 56278U 22151ACW 26256.40961338  .00000061  00000-0  73885-4 0  9996
2 56278  98.9620 229.9841 0117098 195.6188 164.1349 13.94335783177361

Отслеживайте CZ-6A DEB в реальном времени с AllMySat

Download on the App Store